TimeEDT,TemperatureF,Dew PointF,Humidity,Sea Level PressureIn,VisibilityMPH,Wind Direction,Wind SpeedMPH,Gust SpeedMPH,PrecipitationIn,Events,Conditions,WindDirDegrees,DateUTC
2:54 AM,60.1,55.9,86,30.20,10.0,Calm,Calm,-,N/A,,Overcast,0,2012-10-26 06:54:00
3:54 AM,60.1,55.9,86,30.19,10.0,Calm,Calm,-,N/A,,Overcast,0,2012-10-26 07:54:00
4:54 AM,60.1,55.9,86,30.19,10.0,Calm,Calm,-,N/A,,Overcast,0,2012-10-26 08:54:00
5:54 AM,57.9,55.9,93,30.20,8.0,Calm,Calm,-,N/A,,Overcast,0,2012-10-26 09:54:00
6:54 AM,59.0,55.9,90,30.20,9.0,Calm,Calm,-,N/A,,Overcast,0,2012-10-26 10:54:00
7:54 AM,59.0,55.9,90,30.20,10.0,East,3.5,-,N/A,,Overcast,80,2012-10-26 11:54:00
8:54 AM,61.0,55.9,83,30.21,10.0,NNE,4.6,-,N/A,,Overcast,20,2012-10-26 12:54:00
9:54 AM,62.1,55.9,80,30.22,10.0,NE,4.6,-,N/A,,Overcast,40,2012-10-26 13:54:00
10:54 AM,63.0,55.9,78,30.22,10.0,NE,3.5,-,N/A,,Overcast,50,2012-10-26 14:54:00
11:49 AM,64.4,57.2,77,30.21,10.0,Calm,Calm,-,N/A,,Overcast,0,2012-10-26 15:49:00
11:54 AM,64.0,57.0,78,30.21,10.0,East,3.5,-,N/A,,Overcast,80,2012-10-26 15:54:00
12:54 PM,66.0,57.0,73,30.18,10.0,NE,3.5,-,N/A,,Overcast,50,2012-10-26 16:54:00
1:36 PM,66.2,57.2,73,30.16,10.0,ENE,4.6,-,N/A,,Overcast,70,2012-10-26 17:36:00
1:54 PM,66.9,57.9,73,30.15,10.0,East,4.6,-,N/A,,Overcast,100,2012-10-26 17:54:00
2:52 PM,68.0,57.2,68,30.12,10.0,East,4.6,-,N/A,,Overcast,100,2012-10-26 18:52:00
2:54 PM,68.0,57.0,68,30.12,10.0,East,3.5,-,N/A,,Overcast,80,2012-10-26 18:54:00
3:27 PM,68.0,57.2,68,30.12,10.0,East,5.8,-,N/A,,Overcast,100,2012-10-26 19:27:00
3:54 PM,68.0,57.9,70,30.12,10.0,East,3.5,-,N/A,,Overcast,100,2012-10-26 19:54:00
4:13 PM,66.2,57.2,73,30.11,10.0,Calm,Calm,-,N/A,,Overcast,0,2012-10-26 20:13:00
4:47 PM,66.2,57.2,73,30.11,10.0,Calm,Calm,-,N/A,,Overcast,0,2012-10-26 20:47:00
4:54 PM,66.9,57.9,73,30.11,10.0,Calm,Calm,-,N/A,,Overcast,0,2012-10-26 20:54:00
5:08 PM,66.2,57.2,73,30.10,10.0,Calm,Calm,-,N/A,,Overcast,0,2012-10-26 21:08:00
5:54 PM,66.0,57.9,75,30.10,10.0,Variable,3.5,-,N/A,,Overcast,0,2012-10-26 21:54:00
6:16 PM,64.4,57.2,77,30.11,10.0,East,4.6,-,N/A,,Overcast,80,2012-10-26 22:16:00
6:54 PM,64.9,57.0,75,30.12,10.0,Calm,Calm,-,N/A,,Overcast,0,2012-10-26 22:54:00
7:01 PM,64.4,57.2,77,30.12,10.0,Calm,Calm,-,N/A,,Overcast,0,2012-10-26 23:01:00
7:54 PM,64.0,57.9,80,30.12,10.0,Calm,Calm,-,N/A,,Overcast,0,2012-10-26 23:54:00
8:54 PM,63.0,57.9,84,30.12,10.0,Calm,Calm,-,N/A,,Overcast,0,2012-10-27 00:54:00
9:54 PM,63.0,57.0,81,30.12,10.0,ESE,4.6,-,N/A,,Overcast,110,2012-10-27 01:54:00
10:54 PM,62.1,57.0,84,30.11,10.0,ESE,4.6,-,N/A,,Overcast,110,2012-10-27 02:54:00
11:54 PM,62.1,57.0,84,30.09,10.0,Calm,Calm,-,N/A,,Overcast,0,2012-10-27 03:54:00